Powrót do katalogu

MAQSAT B

AktywnyNaukaHEO
NORAD 25024·PAYLOAD·🇪🇺 EU

Wystrzelony Oct 30, 1997 z Guiana Space Centre

Loading…

Następne Przeloty (najbliższe 24 godziny)

TLE

ŚwieżeSource: Space-Track

Epoka: Sep 14, 2026, 14:04 UTC

1 25024U 97066B   26257.58644508 -.00000019  00000-0  47936-3 0  9996
2 25024   7.8281 290.7213 6522529 248.4327 344.2991  3.08960228325804

Śledź MAQSAT B w czasie rzeczywistym z AllMySat

Download on the App Store